Jacksonville, AR

4:09 AM CDT on August 26, 2016 (GMT -0500)
Little Rock Air Force Base

Weather History for KLRF - November, 2012

Change the Weather History Date:

Thursday, November 15, 2012

  Actual Average Record
Temperature  
Mean Temperature 42 °F -  
Max Temperature 58 °F 61 °F 77 °F (1973)
Min Temperature 27 °F 40 °F 19 °F (1969)
Degree Days  
Heating Degree Days 22    
Moisture  
Dew Point 28 °F    
Average Humidity 67    
Maximum Humidity 90    
Minimum Humidity 25    
Precipitation  
Precipitation 0.00 in - - ()
Sea Level Pressure  
Sea Level Pressure 30.36 in    
Wind  
Wind Speed 2 mph (NE)    
Max Wind Speed 7 mph    
Max Gust Speed -    
Visibility 10 miles    
Events      
Averages and records for this station are not official NWS values.
T = Trace of Precipitation, MM = Missing Value Source: NWS Daily Summary

Daily Weather History Graph

Daily Weather History Graph

Search for Another Location

Airport or City:

Trip Planner

Search our weather history database for the weather conditions in past years. The results will help you decide how hot, cold, wet, or windy it might be!

Date:

Astronomy

Nov. 15, 2012 Rise Set
Actual Time 6:43 AM CST 5:02 PM CST
Civil Twilight 6:16 AM CST 5:29 PM CST
Nautical Twilight 5:45 AM CST 6:00 PM CST
Astronomical Twilight 5:15 AM CST 6:30 PM CST
Moon 8:36 AM CST (11/15) 6:57 PM CST (11/15)
Length of Visible Light 11h 13m
Length of Day
10h 19m
Waxing Crescent, 5% of the Moon is Illuminated
Nov 15
Waxing Crescent
Nov 20
First Quarter
Nov 28
Full
Dec 6
Last Quarter
Dec 13
New

Hourly Weather History & Observations

Time (CST) Temp. Windchill Dew Point Humidity Pressure Visibility Wind Dir Wind Speed Gust Speed Precip Events Conditions
12:55 AM 30.9 °F - 27.3 °F 86% 30.35 in 10.0 mi Calm Calm - N/A   Clear
1:55 AM 29.3 °F - 25.9 °F 87% 30.36 in 10.0 mi Calm Calm - N/A   Clear
2:55 AM 28.6 °F - 25.9 °F 90% 30.35 in 10.0 mi Calm Calm - N/A   Clear
3:55 AM 27.7 °F 21.3 °F 24.3 °F 87% 30.35 in 10.0 mi West 5.8 mph - N/A   Clear
4:55 AM 27.0 °F - 23.7 °F 88% 30.35 in 10.0 mi Calm Calm - N/A   Clear
5:55 AM 27.5 °F 23.6 °F 24.1 °F 87% 30.35 in 10.0 mi WSW 3.5 mph - N/A   Clear
6:55 AM 27.7 °F - 24.8 °F 89% 30.37 in 10.0 mi Calm Calm - N/A   Clear
7:55 AM 33.8 °F - 28.9 °F 82% 30.38 in 10.0 mi Calm Calm - N/A   Clear
8:55 AM 40.5 °F - 32.0 °F 72% 30.40 in 10.0 mi Calm Calm - N/A   Clear
9:55 AM 46.8 °F - 32.2 °F 57% 30.40 in 10.0 mi ENE 6.9 mph - N/A   Clear
10:55 AM 50.5 °F - 30.6 °F 46% 30.40 in 10.0 mi Variable 3.5 mph - N/A   Clear
11:55 AM 54.1 °F - 28.6 °F 37% 30.38 in 10.0 mi ENE 4.6 mph - N/A   Clear
12:55 PM 56.1 °F - 26.2 °F 32% 30.34 in 10.0 mi ENE 4.6 mph - N/A   Clear
1:55 PM 57.0 °F - 23.2 °F 27% 30.32 in 10.0 mi NNE 5.8 mph - N/A   Clear
2:55 PM 58.1 °F - 22.6 °F 25% 30.31 in 10.0 mi East 3.5 mph - N/A   Clear
3:55 PM 57.9 °F - 25.2 °F 28% 30.31 in 10.0 mi ENE 5.8 mph - N/A   Clear
4:55 PM 54.0 °F - 25.5 °F 33% 30.32 in 10.0 mi NE 5.8 mph - N/A   Clear
5:55 PM 42.8 °F - 32.2 °F 66% 30.34 in 10.0 mi Calm Calm - N/A   Clear
6:55 PM 38.3 °F - 32.2 °F 79% 30.35 in 10.0 mi Calm Calm - N/A   Clear
7:55 PM 37.6 °F - 30.6 °F 76% 30.36 in 10.0 mi Calm Calm - N/A   Clear
8:55 PM 35.8 °F - 29.8 °F 79% 30.37 in 10.0 mi Calm Calm - N/A   Clear
9:55 PM 33.4 °F - 29.1 °F 84% 30.36 in 10.0 mi Calm Calm - N/A   Clear
10:55 PM 33.3 °F - 28.2 °F 82% 30.38 in 10.0 mi Calm Calm - N/A   Clear
11:55 PM 33.1 °F - 28.0 °F 82% 30.37 in 10.0 mi Calm Calm - N/A   Clear